SAS1KU ESGG-EFTU

Flight info

Callsign SAS1KU
Flight time 1h 11m
Altitude 35000
Route LABAN Y430 UMTON DCT TUSNI DCT POKAS DCT OTKIL
Aircraft MD82/M-SDFGIRWY/C

Departure

Time 2026-04-23 17:31
Airport Göteborg Landvetter Airport (ESGG)

Arrival

Time 2026-04-23 18:43
Airport Turku Airport (EFTU)
Time Latitude Longitude Altitude Speed Heading
2026-04-23 16:55 57.66893 12.29407 509 ft 0 kts 115°
2026-04-23 17:20 57.66901 12.29375 509 ft 2 kts 115°
2026-04-23 17:21 57.66909 12.29332 508 ft 2 kts 87°
2026-04-23 17:21 57.66906 12.29306 508 ft 2 kts 67°
2026-04-23 17:21 57.66889 12.29268 508 ft 0 kts 28°
2026-04-23 17:22 57.66883 12.29263 508 ft 0 kts 25°
2026-04-23 17:22 57.66883 12.29262 507 ft 0 kts 25°
2026-04-23 17:24 57.66883 12.29263 507 ft 0 kts 25°
2026-04-23 17:24 57.66886 12.29265 507 ft 1 kts 25°
2026-04-23 17:24 57.66959 12.29328 506 ft 9 kts 10°
2026-04-23 17:25 57.67035 12.29089 505 ft 14 kts 283°
2026-04-23 17:25 57.66966 12.28946 502 ft 17 kts 207°
2026-04-23 17:26 57.66743 12.28743 502 ft 0 kts 206°
2026-04-23 17:26 57.66740 12.28740 502 ft 3 kts 206°
2026-04-23 17:27 57.66747 12.28916 504 ft 26 kts 25°
2026-04-23 17:27 57.66923 12.29074 504 ft 24 kts 26°
2026-04-23 17:27 57.67062 12.29201 506 ft 20 kts 25°
2026-04-23 17:27 57.67191 12.29319 506 ft 20 kts 26°
2026-04-23 17:28 57.67312 12.29430 507 ft 18 kts 26°
2026-04-23 17:28 57.67420 12.29526 509 ft 16 kts 26°
2026-04-23 17:28 57.67519 12.29593 509 ft 14 kts 346°
2026-04-23 17:28 57.67576 12.29457 509 ft 13 kts 296°
2026-04-23 17:29 57.67589 12.29391 509 ft 0 kts 274°
2026-04-23 17:29 57.67587 12.29322 507 ft 0 kts 262°
2026-04-23 17:30 57.67582 12.29262 507 ft 9 kts 256°
2026-04-23 17:30 57.67497 12.29086 506 ft 0 kts 205°
2026-04-23 17:30 57.67421 12.29017 506 ft 44 kts 206°
2026-04-23 17:31 57.66902 12.28544 505 ft 120 kts 206°
2026-04-23 17:31 57.65945 12.27674 537 ft 179 kts 208°
2026-04-23 17:31 57.64815 12.26699 1308 ft 183 kts 210°
2026-04-23 17:31 57.63594 12.25550 1801 ft 214 kts 209°
2026-04-23 17:32 57.62059 12.24860 2364 ft 246 kts 178°
2026-04-23 17:32 57.60377 12.25797 2944 ft 260 kts 148°
2026-04-23 17:32 57.58913 12.27308 3372 ft 223 kts 152°
2026-04-23 17:32 57.57629 12.28585 3560 ft 207 kts 135°
2026-04-23 17:33 57.56847 12.30913 3818 ft 223 kts 96°
2026-04-23 17:33 57.56971 12.33767 4444 ft 228 kts 63°
2026-04-23 17:33 57.57544 12.36535 5174 ft 241 kts 64°
2026-04-23 17:33 57.58160 12.39525 6031 ft 251 kts 64°
2026-04-23 17:34 57.58796 12.42569 6932 ft 259 kts 63°
2026-04-23 17:34 57.59466 12.45749 7625 ft 275 kts 63°
2026-04-23 17:34 57.60861 12.52362 9398 ft 287 kts 62°
2026-04-23 17:35 57.61570 12.55732 10516 ft 282 kts 61°
2026-04-23 17:35 57.64112 12.61231 11410 ft 298 kts 26°
2026-04-23 17:35 57.65877 12.63368 12011 ft 312 kts 28°
2026-04-23 17:36 57.67714 12.65661 12560 ft 326 kts 29°
2026-04-23 17:36 57.69595 12.68038 13345 ft 331 kts 29°
2026-04-23 17:36 57.71475 12.70433 14218 ft 330 kts 29°
2026-04-23 17:36 57.73399 12.72885 14765 ft 341 kts 30°
2026-04-23 17:37 57.75334 12.75365 15739 ft 337 kts 29°
2026-04-23 17:37 57.77268 12.77841 16308 ft 344 kts 30°
2026-04-23 17:37 57.80437 12.84786 17700 ft 357 kts 47°
2026-04-23 17:38 57.81972 12.88522 18034 ft 368 kts 47°
2026-04-23 17:38 57.83508 12.92237 18929 ft 362 kts 46°
2026-04-23 17:38 57.85068 12.95997 19221 ft 373 kts 47°
2026-04-23 17:38 57.86637 12.99781 20128 ft 365 kts 47°
2026-04-23 17:39 57.88234 13.03634 20307 ft 379 kts 47°
2026-04-23 17:39 57.89811 13.07448 21207 ft 370 kts 47°
2026-04-23 17:39 57.91404 13.11301 21370 ft 383 kts 47°
2026-04-23 17:39 57.93019 13.15217 22068 ft 379 kts 47°
2026-04-23 17:40 57.94643 13.19158 22316 ft 388 kts 48°
2026-04-23 17:40 57.96294 13.23176 22981 ft 384 kts 48°
2026-04-23 17:40 57.97914 13.27122 23265 ft 391 kts 48°
2026-04-23 17:40 57.99572 13.31172 23760 ft 390 kts 48°
2026-04-23 17:41 58.01235 13.35241 24110 ft 395 kts 48°
2026-04-23 17:41 58.04572 13.43424 24983 ft 397 kts 47°
2026-04-23 17:41 58.06263 13.47582 25263 ft 401 kts 47°
2026-04-23 17:42 58.09650 13.55930 25960 ft 405 kts 47°
2026-04-23 17:42 58.11337 13.60101 26446 ft 404 kts 47°
2026-04-23 17:42 58.13063 13.64372 26622 ft 410 kts 47°
2026-04-23 17:43 58.14771 13.68608 27105 ft 408 kts 48°
2026-04-23 17:43 58.16510 13.72929 27244 ft 415 kts 48°
2026-04-23 17:43 58.18222 13.77191 27713 ft 412 kts 47°
2026-04-23 17:43 58.19980 13.81570 27918 ft 417 kts 48°
2026-04-23 17:44 58.21709 13.85894 28223 ft 418 kts 47°
2026-04-23 17:44 58.23461 13.90278 28512 ft 419 kts 47°
2026-04-23 17:44 58.26948 13.99032 29257 ft 418 kts 47°
2026-04-23 17:45 58.28709 14.03461 29565 ft 417 kts 47°
2026-04-23 17:45 58.32151 14.12147 30248 ft 415 kts 46°
2026-04-23 17:45 58.33879 14.16521 30514 ft 415 kts 46°
2026-04-23 17:46 58.37289 14.25173 31093 ft 413 kts 46°
2026-04-23 17:46 58.39001 14.29528 31420 ft 410 kts 46°
2026-04-23 17:46 58.40699 14.33857 31736 ft 409 kts 46°
2026-04-23 17:47 58.42405 14.38214 31882 ft 410 kts 46°
2026-04-23 17:47 58.44078 14.42493 32190 ft 408 kts 46°
2026-04-23 17:47 58.47475 14.51206 32531 ft 409 kts 46°
2026-04-23 17:48 58.49145 14.55504 32808 ft 407 kts 46°
2026-04-23 17:48 58.50821 14.59822 32959 ft 407 kts 46°
2026-04-23 17:48 58.52503 14.64164 33158 ft 406 kts 46°
2026-04-23 17:48 58.54170 14.68478 33311 ft 407 kts 46°
2026-04-23 17:49 58.55861 14.72858 33443 ft 407 kts 46°
2026-04-23 17:49 58.57531 14.77196 33623 ft 406 kts 46°
2026-04-23 17:49 58.59199 14.81531 33748 ft 406 kts 46°
2026-04-23 17:49 58.60851 14.85838 33919 ft 405 kts 46°
2026-04-23 17:50 58.62521 14.90193 34046 ft 405 kts 46°
2026-04-23 17:50 58.65817 14.98822 34382 ft 403 kts 46°
2026-04-23 17:50 58.67464 15.03145 34505 ft 403 kts 46°
2026-04-23 17:51 58.69118 15.07495 34662 ft 402 kts 46°
2026-04-23 17:51 58.70752 15.11800 34796 ft 402 kts 46°
2026-04-23 17:51 58.74029 15.20452 35014 ft 402 kts 46°
2026-04-23 17:52 58.75663 15.24779 35012 ft 405 kts 45°
2026-04-23 17:52 58.80635 15.37997 34999 ft 410 kts 45°
2026-04-23 17:53 58.85634 15.51362 35011 ft 412 kts 45°
2026-04-23 17:54 58.88974 15.60333 34993 ft 413 kts 45°
2026-04-23 17:54 58.93959 15.73792 35002 ft 414 kts 46°
2026-04-23 17:55 58.98956 15.87350 35002 ft 414 kts 46°
2026-04-23 17:56 59.02274 15.96402 34937 ft 414 kts 46°
2026-04-23 17:56 59.07224 16.09968 34987 ft 412 kts 46°
2026-04-23 17:57 59.10509 16.19014 34994 ft 411 kts 46°
2026-04-23 17:58 59.15431 16.32630 35002 ft 413 kts 46°
2026-04-23 17:58 59.18726 16.41790 35003 ft 414 kts 46°
2026-04-23 17:59 59.21988 16.50897 34995 ft 412 kts 46°
2026-04-23 17:59 59.25269 16.60089 35009 ft 414 kts 46°
2026-04-23 18:00 59.28543 16.69298 34995 ft 414 kts 46°
2026-04-23 18:00 59.31793 16.78477 34993 ft 414 kts 46°
2026-04-23 18:01 59.34683 16.88264 34992 ft 408 kts 53°
2026-04-23 18:01 59.37266 16.97927 34988 ft 402 kts 53°
2026-04-23 18:02 59.39840 17.07603 34940 ft 407 kts 52°
2026-04-23 18:02 59.42450 17.17473 34984 ft 406 kts 52°
2026-04-23 18:03 59.45015 17.27212 34986 ft 406 kts 52°
2026-04-23 18:03 59.47606 17.37096 34986 ft 406 kts 52°
2026-04-23 18:04 59.50181 17.46962 34986 ft 408 kts 52°
2026-04-23 18:04 59.52745 17.56831 34986 ft 406 kts 52°
2026-04-23 18:05 59.55297 17.66697 34983 ft 408 kts 53°
2026-04-23 18:05 59.57858 17.76640 34977 ft 407 kts 53°
2026-04-23 18:06 59.60403 17.86565 34982 ft 408 kts 53°
2026-04-23 18:06 59.62947 17.96534 34979 ft 407 kts 53°
2026-04-23 18:07 59.65484 18.06517 34976 ft 407 kts 53°
2026-04-23 18:07 59.68003 18.16475 34971 ft 406 kts 53°
2026-04-23 18:08 59.70504 18.26404 34965 ft 404 kts 53°
2026-04-23 18:08 59.72986 18.36305 34963 ft 405 kts 53°
2026-04-23 18:09 59.75474 18.46275 34966 ft 404 kts 53°
2026-04-23 18:09 59.77946 18.56224 34965 ft 404 kts 53°
2026-04-23 18:10 59.80418 18.66220 34965 ft 403 kts 54°
2026-04-23 18:10 59.82864 18.76148 34962 ft 403 kts 54°
2026-04-23 18:11 59.85326 18.86199 34959 ft 404 kts 54°
2026-04-23 18:11 59.86543 18.91176 34847 ft 407 kts 54°
2026-04-23 18:11 59.87761 18.96180 34537 ft 406 kts 54°
2026-04-23 18:11 59.88985 19.01214 34047 ft 405 kts 54°
2026-04-23 18:12 59.90205 19.06244 33592 ft 403 kts 54°
2026-04-23 18:12 59.91423 19.11275 33123 ft 403 kts 54°
2026-04-23 18:12 59.92704 19.16140 32655 ft 395 kts 48°
2026-04-23 18:12 59.94350 19.20401 32202 ft 385 kts 38°
2026-04-23 18:13 59.96322 19.23849 31777 ft 376 kts 28°
2026-04-23 18:13 59.98449 19.26863 31375 ft 376 kts 28°
2026-04-23 18:13 60.00557 19.29841 30999 ft 376 kts 28°
2026-04-23 18:14 60.04781 19.35821 30947 ft 376 kts 28°
2026-04-23 18:14 60.09027 19.41865 30964 ft 375 kts 28°
2026-04-23 18:15 60.13261 19.47910 30957 ft 377 kts 28°
2026-04-23 18:15 60.17508 19.54012 30959 ft 376 kts 28°
2026-04-23 18:16 60.21744 19.60089 30956 ft 374 kts 28°
2026-04-23 18:16 60.25946 19.66156 30947 ft 375 kts 28°
2026-04-23 18:17 60.32255 19.75370 30669 ft 380 kts 28°
2026-04-23 18:17 60.34400 19.78514 30246 ft 379 kts 28°
2026-04-23 18:17 60.36496 19.81612 29812 ft 379 kts 30°
2026-04-23 18:18 60.38447 19.85287 29276 ft 390 kts 39°
2026-04-23 18:18 60.40107 19.89720 27958 ft 411 kts 48°
2026-04-23 18:18 60.41432 19.94939 26461 ft 432 kts 58°
2026-04-23 18:18 60.42336 20.00717 24929 ft 442 kts 66°
2026-04-23 18:19 60.42858 20.06544 21473 ft 445 kts 76°
2026-04-23 18:19 60.42903 20.12502 18899 ft 435 kts 79°
2026-04-23 18:19 60.43000 20.18502 18479 ft 416 kts 78°
2026-04-23 18:19 60.43151 20.24184 18267 ft 395 kts 77°
2026-04-23 18:20 60.43332 20.29611 18135 ft 376 kts 76°
2026-04-23 18:20 60.43523 20.34747 17985 ft 359 kts 75°
2026-04-23 18:20 60.43715 20.39636 17849 ft 343 kts 75°
2026-04-23 18:20 60.43903 20.44335 17732 ft 328 kts 74°
2026-04-23 18:21 60.44087 20.48850 17631 ft 312 kts 73°
2026-04-23 18:21 60.44261 20.53118 17532 ft 298 kts 73°
2026-04-23 18:21 60.44428 20.57205 17421 ft 284 kts 72°
2026-04-23 18:21 60.44586 20.61078 17297 ft 271 kts 72°
2026-04-23 18:22 60.44736 20.64786 17226 ft 258 kts 71°
2026-04-23 18:22 60.44875 20.68254 16959 ft 240 kts 71°
2026-04-23 18:22 60.45012 20.71561 16447 ft 234 kts 71°
2026-04-23 18:22 60.45152 20.74864 16089 ft 247 kts 72°
2026-04-23 18:23 60.45317 20.78641 15789 ft 284 kts 75°
2026-04-23 18:23 60.45622 20.86491 15313 ft 278 kts 75°
2026-04-23 18:24 60.45925 20.94284 14536 ft 277 kts 75°
2026-04-23 18:24 60.46074 20.98143 14144 ft 277 kts 76°
2026-04-23 18:24 60.46223 21.02048 13764 ft 276 kts 76°
2026-04-23 18:25 60.46505 21.09598 12894 ft 259 kts 76°
2026-04-23 18:25 60.46641 21.13198 12552 ft 258 kts 77°
2026-04-23 18:25 60.46776 21.16815 12163 ft 259 kts 77°
2026-04-23 18:25 60.46910 21.20426 11769 ft 260 kts 77°
2026-04-23 18:26 60.47046 21.24113 11372 ft 261 kts 77°
2026-04-23 18:26 60.47178 21.27736 10982 ft 262 kts 78°
2026-04-23 18:26 60.47311 21.31446 10644 ft 260 kts 78°
2026-04-23 18:26 60.47438 21.35036 10415 ft 254 kts 78°
2026-04-23 18:27 60.47794 21.38361 10240 ft 232 kts 56°
2026-04-23 18:27 60.48423 21.41311 10108 ft 223 kts 59°
2026-04-23 18:27 60.49006 21.44130 9975 ft 214 kts 58°
2026-04-23 18:27 60.49585 21.46927 9563 ft 219 kts 59°
2026-04-23 18:28 60.50172 21.49779 9174 ft 222 kts 59°
2026-04-23 18:28 60.50766 21.52673 8779 ft 225 kts 60°
2026-04-23 18:28 60.51366 21.55611 8377 ft 229 kts 60°
2026-04-23 18:28 60.51976 21.58598 7976 ft 232 kts 60°
2026-04-23 18:29 60.52600 21.61656 7595 ft 235 kts 60°
2026-04-23 18:29 60.53241 21.64794 7637 ft 257 kts 60°
2026-04-23 18:29 60.53946 21.68266 7686 ft 269 kts 62°
2026-04-23 18:29 60.54637 21.71694 7747 ft 261 kts 62°
2026-04-23 18:30 60.55320 21.75070 7734 ft 260 kts 62°
2026-04-23 18:30 60.56014 21.78502 7750 ft 261 kts 62°
2026-04-23 18:30 60.56705 21.81927 7742 ft 262 kts 62°
2026-04-23 18:30 60.57406 21.85399 7334 ft 269 kts 62°
2026-04-23 18:31 60.58046 21.88895 6940 ft 271 kts 72°
2026-04-23 18:31 60.58237 21.92730 6547 ft 271 kts 79°
2026-04-23 18:31 60.58410 21.96516 6117 ft 270 kts 79°
2026-04-23 18:31 60.58585 22.00311 5697 ft 269 kts 79°
2026-04-23 18:32 60.58757 22.04067 5283 ft 268 kts 79°
2026-04-23 18:32 60.58929 22.07816 4875 ft 267 kts 79°
2026-04-23 18:32 60.59099 22.11528 4542 ft 263 kts 79°
2026-04-23 18:32 60.59264 22.15189 4243 ft 259 kts 79°
2026-04-23 18:33 60.59428 22.18824 3928 ft 255 kts 79°
2026-04-23 18:33 60.59587 22.22345 3645 ft 251 kts 79°
2026-04-23 18:33 60.59742 22.25843 3445 ft 243 kts 79°
2026-04-23 18:33 60.59889 22.29194 3255 ft 236 kts 79°
2026-04-23 18:34 60.60031 22.32436 3065 ft 230 kts 79°
2026-04-23 18:34 60.60173 22.35662 2889 ft 229 kts 79°
2026-04-23 18:34 60.60315 22.38919 2711 ft 232 kts 79°
2026-04-23 18:34 60.60455 22.42156 2532 ft 231 kts 80°
2026-04-23 18:35 60.60590 22.45358 2356 ft 224 kts 79°
2026-04-23 18:35 60.60720 22.48445 2265 ft 212 kts 79°
2026-04-23 18:35 60.60839 22.51261 2218 ft 195 kts 79°
2026-04-23 18:35 60.60947 22.53879 2194 ft 176 kts 78°
2026-04-23 18:36 60.61047 22.56274 2138 ft 159 kts 78°
2026-04-23 18:36 60.61134 22.58513 2180 ft 169 kts 83°
2026-04-23 18:36 60.60722 22.60804 2161 ft 180 kts 129°
2026-04-23 18:36 60.59645 22.62015 2165 ft 182 kts 173°
2026-04-23 18:37 60.58403 22.61992 2183 ft 181 kts 182°
2026-04-23 18:37 60.57145 22.62032 2160 ft 179 kts 180°
2026-04-23 18:37 60.55912 22.62132 2161 ft 179 kts 179°
2026-04-23 18:37 60.54666 22.62278 2168 ft 179 kts 179°
2026-04-23 18:38 60.53509 22.61715 2178 ft 167 kts 220°
2026-04-23 18:38 60.52903 22.59902 2191 ft 147 kts 267°
2026-04-23 18:38 60.52806 22.58048 2245 ft 127 kts 271°
2026-04-23 18:38 60.52714 22.56199 2311 ft 138 kts 272°
2026-04-23 18:39 60.52622 22.54280 2301 ft 138 kts 272°
2026-04-23 18:39 60.52533 22.52361 2254 ft 137 kts 272°
2026-04-23 18:39 60.52447 22.50436 2155 ft 137 kts 272°
2026-04-23 18:39 60.52364 22.48535 2038 ft 136 kts 272°
2026-04-23 18:40 60.52283 22.46621 1909 ft 136 kts 271°
2026-04-23 18:40 60.52203 22.44741 1754 ft 132 kts 271°
2026-04-23 18:40 60.52123 22.42847 1591 ft 135 kts 271°
2026-04-23 18:40 60.52042 22.40959 1401 ft 135 kts 270°
2026-04-23 18:41 60.51960 22.39035 1226 ft 135 kts 270°
2026-04-23 18:41 60.51879 22.37146 1024 ft 137 kts 270°
2026-04-23 18:41 60.51807 22.35257 847 ft 133 kts 270°
2026-04-23 18:41 60.51726 22.33355 641 ft 137 kts 268°
2026-04-23 18:42 60.51641 22.31451 479 ft 132 kts 267°
2026-04-23 18:42 60.51561 22.29582 290 ft 136 kts 265°
2026-04-23 18:42 60.51465 22.27696 168 ft 135 kts 266°
2026-04-23 18:42 60.51403 22.25985 155 ft 98 kts 264°
2026-04-23 18:43 60.51347 22.25341 149 ft 18 kts 236°
2026-04-23 18:43 60.51266 22.25268 147 ft 11 kts 174°
2026-04-23 18:43 60.51234 22.25297 148 ft 0 kts 138°
2026-04-23 18:44 60.51233 22.25298 148 ft 0 kts 137°
2026-04-23 18:44 60.51218 22.25337 148 ft 6 kts 123°
2026-04-23 18:44 60.51205 22.25455 150 ft 10 kts 87°
2026-04-23 18:44 60.51212 22.25609 152 ft 13 kts 85°
2026-04-23 18:45 60.51221 22.25825 155 ft 16 kts 84°
2026-04-23 18:45 60.51232 22.26063 159 ft 17 kts 82°
2026-04-23 18:45 60.51276 22.26296 161 ft 18 kts 65°
2026-04-23 18:45 60.51303 22.26554 163 ft 19 kts 84°
2026-04-23 18:46 60.51315 22.26831 166 ft 20 kts 84°
2026-04-23 18:46 60.51328 22.27124 165 ft 18 kts 84°
2026-04-23 18:46 60.51284 22.27283 165 ft 7 kts 205°
2026-04-23 18:46 60.51228 22.27281 165 ft 9 kts 153°
2026-04-23 18:47 60.51188 22.27327 165 ft 0 kts 148°